This is the latest recevied weather packets stored in our database for station/object K4WCH. If no packets are shown the sender has not sent any weather packets the latest 10 day(s).
| Time | Temp. | Humidity | Pressure | Rain* | Wind** | Luminosity | Snow |
|---|---|---|---|---|---|---|---|
| 1788274696 | 30.56° C | 73% | 1017.5 hPa | 0 mm | - | 877 W/m² | - |
| 1788274395 | 30° C | 71% | 1017.6 hPa | 0 mm | - | 171 W/m² | - |
| 1788274091 | 30.56° C | 71% | 1017.7 hPa | 0 mm | - | 373 W/m² | - |
| 1788273786 | 31.11° C | 70% | 1017.5 hPa | 0 mm | - | 189 W/m² | - |
| 1788273482 | 30.56° C | 73% | 1017.5 hPa | 0 mm | - | 749 W/m² | - |
| 1788273178 | 30.56° C | 75% | 1017.6 hPa | 0 mm | - | 744 W/m² | - |
| 1788272874 | 30° C | 78% | 1017.3 hPa | 0 mm | - | 767 W/m² | - |
| 1788272573 | 29.44° C | 79% | 1017.4 hPa | 0 mm | - | 156 W/m² | - |
| 1788272268 | 30° C | 79% | 1017.4 hPa | 0 mm | - | 151 W/m² | - |
| 1788271969 | 30° C | 77% | 1017.5 hPa | 0 mm | - | 366 W/m² | - |
| 1788271668 | 30° C | 76% | 1017.6 hPa | 0 mm | - | 207 W/m² | - |
| 1788271366 | 30° C | 75% | 1017.4 hPa | 0 mm | - | 684 W/m² | - |
| 1788271062 | 30° C | 80% | 1017.5 hPa | 0 mm | - | 175 W/m² | - |
| 1788270761 | 30° C | 80% | 1017.2 hPa | 0 mm | - | 556 W/m² | - |
| 1788270458 | 30° C | 80% | 1017.4 hPa | 0 mm | - | 556 W/m² | - |
| 1788270157 | 29.44° C | 80% | 1017.3 hPa | 0 mm | - | 526 W/m² | - |
| 1788269856 | 29.44° C | 83% | 1017.1 hPa | 0 mm | - | 479 W/m² | - |
| 1788269557 | 28.89° C | 85% | 1017.1 hPa | 0 mm | - | 450 W/m² | - |
| 1788269255 | 28.89° C | 85% | 1017 hPa | 0 mm | - | 418 W/m² | - |
| 1788268952 | 28.89° C | 86% | 1017 hPa | 0 mm | - | 409 W/m² | - |
| 1788268645 | 28.33° C | 87% | 1016.9 hPa | 0 mm | - | 361 W/m² | - |
| 1788268344 | 28.33° C | 87% | 1016.9 hPa | 0 mm | - | 361 W/m² | - |
| 1788268040 | 28.33° C | 87% | 1017.1 hPa | 0 mm | - | 300 W/m² | - |
| 1788267739 | 28.33° C | 87% | 1017.1 hPa | 0 mm | - | 300 W/m² | - |
| 1788267436 | 28.33° C | 88% | 1017 hPa | 0 mm | - | 281 W/m² | - |
* Rain latest hour (hover to see other rain measurements)
** Current wind speed in m/s (hover to see current wind gust speed)